,,,PA_Meas_PMT16A,,PR_Meas_QMR101_102,,RH_Meas_QMH101,,SR_Meas_QMS101,,TA_Meas_QMH101,,GenWind,,GenWind,
date,time,status,PA,status,PR,status,RH,status,SR,status,TA,status,DirAvg,status,SpdAvg,
2011-03-31, 00:00:04,VALID,1004.07,VALID,0.5,INVALID,163.754,VALID,0,VALID,23.8575,VALID,111,VALID,0.839063,
2011-03-31, 00:01:04,VALID,1004.11,VALID,0,INVALID,163.731,VALID,0,VALID,23.8769,VALID,85,VALID,0.746094,
2011-03-31, 00:02:04,VALID,1004.16,VALID,0,INVALID,163.746,VALID,0,VALID,23.9177,VALID,109,VALID,1.66016,
2011-03-31, 00:03:04,VALID,1004.15,VALID,0,INVALID,163.754,VALID,0,VALID,23.9159,VALID,127,VALID,1.33672,
2011-03-31, 00:04:04,VALID,1004.19,VALID,0,INVALID,163.754,VALID,0,VALID,23.8964,VALID,128,VALID,1.76172,
2011-03-31, 00:05:04,VALID,1004.2,VALID,0,INVALID,163.723,VALID,0,VALID,23.8964,VALID,145,VALID,0.853125,
2011-03-31, 00:06:04,VALID,1004.13,VALID,0,INVALID,163.708,VALID,0,VALID,23.8769,VALID,126,VALID,0.987109,
2011-03-31, 00:07:04,VALID,1004.11,VALID,0,INVALID,163.716,VALID,0,VALID,23.8769,VALID,147,VALID,0.772656,
2011-03-31, 00:08:04,VALID,1004.01,VALID,0,INVALID,163.723,VALID,0,VALID,23.8556,VALID,171,VALID,0.671094,
2011-03-31, 00:09:04,VALID,1003.92,VALID,0,INVALID,163.754,VALID,0,VALID,23.838,VALID,171,VALID,0.219531,
2011-03-31, 00:10:04,VALID,1003.8,VALID,0,INVALID,163.746,VALID,0,VALID,23.8769,VALID,187,VALID,0.580859,
2011-03-31, 00:11:04,VALID,1003.78,VALID,0,INVALID,163.746,VALID,0,VALID,23.8964,VALID,200,VALID,0.179297,
2011-03-31, 00:12:04,VALID,1003.72,VALID,0,INVALID,163.739,VALID,0,VALID,23.9159,VALID,201,VALID,0.229297,
2011-03-31, 00:13:04,VALID,1003.75,VALID,0,INVALID,163.708,VALID,0.100563,VALID,23.9353,VALID,201,VALID,0.185547,
2011-03-31, 00:14:04,VALID,1003.74,VALID,0,INVALID,163.762,VALID,0,VALID,23.9335,VALID,202,VALID,0.336719,
2011-03-31, 00:15:04,VALID,1003.69,VALID,0,INVALID,163.746,VALID,0,VALID,23.9548,VALID,269,VALID,0.800781,
2011-03-31, 00:16:04,VALID,1003.69,VALID,0,INVALID,163.723,VALID,0,VALID,23.8946,VALID,270,VALID,0.692187,
2011-03-31, 00:17:04,VALID,1003.67,VALID,0,INVALID,163.723,VALID,0,VALID,23.8982,VALID,221,VALID,0.375391,
2011-03-31, 00:18:04,VALID,1003.7,VALID,0,INVALID,163.746,VALID,0,VALID,23.8575,VALID,220,VALID,0.587109,
2011-03-31, 00:19:04,VALID,1003.67,VALID,0.5,INVALID,163.739,VALID,0,VALID,23.8185,VALID,221,VALID,0.889063,
2011-03-31, 00:20:04,VALID,1003.65,VALID,0,INVALID,163.754,VALID,0,VALID,23.7991,VALID,215,VALID,0.300391,
2011-03-31, 00:21:04,VALID,1003.57,VALID,0,INVALID,163.739,VALID,0,VALID,23.7796,VALID,215,VALID,0.240234,
2011-03-31, 00:22:04,VALID,1003.55,VALID,0,INVALID,163.769,VALID,0,VALID,23.7991,VALID,215,VALID,0.221484,
2011-03-31, 00:23:04,VALID,1003.55,VALID,0,INVALID,163.762,VALID,0,VALID,23.7991,VALID,215,VALID,0.161328,
2011-03-31, 00:24:04,VALID,1003.55,VALID,0,INVALID,163.762,VALID,0,VALID,23.8009,VALID,215,VALID,0.171875,
2011-03-31, 00:25:04,VALID,1003.55,VALID,0,INVALID,163.754,VALID,0,VALID,23.7601,VALID,199,VALID,0.702734,
2011-03-31, 00:26:04,VALID,1003.52,VALID,0,INVALID,163.762,VALID,0.100563,VALID,23.7778,VALID,181,VALID,0.288672,
2011-03-31, 00:27:04,VALID,1003.47,VALID,0,INVALID,163.754,VALID,0,VALID,23.7796,VALID,181,VALID,0.296094,
2011-03-31, 00:28:04,VALID,1003.47,VALID,0.5,INVALID,163.754,VALID,0,VALID,23.7991,VALID,181,VALID,0.158984,
2011-03-31, 00:29:04,VALID,1003.46,VALID,0,INVALID,163.739,VALID,0,VALID,23.8009,VALID,181,VALID,0.433594,
2011-03-31, 00:30:04,VALID,1003.42,VALID,0,INVALID,163.769,VALID,0,VALID,23.7991,VALID,181,VALID,0.0851562,
2011-03-31, 00:31:04,VALID,1003.41,VALID,0,INVALID,163.769,VALID,0,VALID,23.8185,VALID,181,VALID,0.255859,
2011-03-31, 00:32:04,VALID,1003.42,VALID,0,INVALID,163.739,VALID,0.100563,VALID,23.8167,VALID,179,VALID,0.541797,
2011-03-31, 00:33:04,VALID,1003.42,VALID,0,INVALID,163.731,VALID,0,VALID,23.8362,VALID,193,VALID,0.837109,
2011-03-31, 00:34:04,VALID,1003.41,VALID,0,INVALID,163.754,VALID,0,VALID,23.8769,VALID,202,VALID,0.849609,
2011-03-31, 00:35:04,VALID,1003.38,VALID,0,INVALID,163.739,VALID,0,VALID,23.8964,VALID,213,VALID,0.741406,
2011-03-31, 00:36:04,VALID,1003.36,VALID,0,INVALID,163.754,VALID,0,VALID,23.8769,VALID,192,VALID,2.00977,
2011-03-31, 00:37:04,VALID,1003.38,VALID,0,INVALID,163.708,VALID,0,VALID,23.8946,VALID,173,VALID,1.73594,
2011-03-31, 00:38:04,VALID,1003.36,VALID,0,INVALID,163.739,VALID,0,VALID,23.914,VALID,195,VALID,0.682422,
2011-03-31, 00:39:04,VALID,1003.35,VALID,0,INVALID,163.723,VALID,0,VALID,23.9742,VALID,196,VALID,0.373828,
2011-03-31, 00:40:04,VALID,1003.32,VALID,0,INVALID,163.746,VALID,0,VALID,23.9937,VALID,149,VALID,1.04727,
2011-03-31, 00:41:04,VALID,1003.32,VALID,0,INVALID,163.746,VALID,0,VALID,24.0132,VALID,203,VALID,0.776563,
2011-03-31, 00:42:04,VALID,1003.3,VALID,0,INVALID,163.762,VALID,0,VALID,24.0326,VALID,126,VALID,1.26758,
2011-03-31, 00:43:04,VALID,1003.24,VALID,0,INVALID,163.731,VALID,0,VALID,24.0308,VALID,131,VALID,0.880859,
2011-03-31, 00:44:04,VALID,1003.21,VALID,0,INVALID,163.716,VALID,0,VALID,24.0929,VALID,149,VALID,1.03398,
2011-03-31, 00:45:04,VALID,1003.18,VALID,0,INVALID,163.708,VALID,0,VALID,24.091,VALID,146,VALID,1.0418,
2011-03-31, 00:46:04,VALID,1003.15,VALID,0,INVALID,163.739,VALID,0,VALID,24.0892,VALID,152,VALID,0.949609,
2011-03-31, 00:47:04,VALID,1003.14,VALID,0,INVALID,163.716,VALID,0.100563,VALID,24.1105,VALID,130,VALID,1.07656,
2011-03-31, 00:48:04,VALID,1003.1,VALID,0,INVALID,163.723,VALID,0,VALID,24.1087,VALID,128,VALID,0.672266,
2011-03-31, 00:49:04,VALID,1003.09,VALID,0,INVALID,163.708,VALID,0,VALID,24.1281,VALID,171,VALID,0.847266,
2011-03-31, 00:50:04,VALID,1003.04,VALID,0,INVALID,163.716,VALID,0.100563,VALID,24.1707,VALID,182,VALID,0.253516,
2011-03-31, 00:51:04,VALID,1003.02,VALID,0,INVALID,163.731,VALID,0,VALID,24.1494,VALID,182,VALID,0.365234,
2011-03-31, 00:52:04,VALID,1002.96,VALID,0,INVALID,163.708,VALID,0.100563,VALID,24.1494,VALID,172,VALID,0.832031,
2011-03-31, 00:53:04,VALID,1002.96,VALID,0,INVALID,163.731,VALID,0,VALID,24.1689,VALID,162,VALID,0.879297,
2011-03-31, 00:54:04,VALID,1002.91,VALID,0,INVALID,163.746,VALID,0,VALID,24.2078,VALID,154,VALID,0.777344,
2011-03-31, 00:55:04,VALID,1002.89,VALID,0,INVALID,163.723,VALID,0,VALID,24.2486,VALID,181,VALID,1.00273,
2011-03-31, 00:56:04,VALID,1002.88,VALID,0,INVALID,163.731,VALID,0,VALID,24.2681,VALID,100,VALID,0.858203,
2011-03-31, 00:57:04,VALID,1002.89,VALID,0,INVALID,163.708,VALID,0,VALID,24.2875,VALID,156,VALID,0.513281,
2011-03-31, 00:58:04,VALID,1002.9,VALID,0.5,INVALID,163.716,VALID,0,VALID,24.2857,VALID,155,VALID,0.440234,
2011-03-31, 00:59:04,VALID,1002.87,VALID,0,INVALID,163.716,VALID,0,VALID,24.2857,VALID,152,VALID,0.244531,
2011-03-31, 01:00:04,VALID,1002.88,VALID,0,INVALID,163.678,VALID,0,VALID,24.2857,VALID,152,VALID,0.211719,
2011-03-31, 01:01:04,VALID,1002.89,VALID,0,INVALID,163.701,VALID,0,VALID,24.2468,VALID,150,VALID,0.344141,
2011-03-31, 01:02:04,VALID,1002.89,VALID,0,INVALID,163.723,VALID,0,VALID,24.2875,VALID,150,VALID,0.404297,
2011-03-31, 01:03:04,VALID,1002.86,VALID,0,INVALID,163.716,VALID,0,VALID,24.2468,VALID,150,VALID,0.303125,
2011-03-31, 01:04:04,VALID,1002.85,VALID,0,INVALID,163.723,VALID,0,VALID,24.2273,VALID,150,VALID,0.242188,
2011-03-31, 01:05:04,VALID,1002.84,VALID,0,INVALID,163.708,VALID,0,VALID,24.2486,VALID,150,VALID,0,
2011-03-31, 01:06:04,VALID,1002.79,VALID,0,INVALID,163.678,VALID,0,VALID,24.206,VALID,150,VALID,0,
2011-03-31, 01:07:04,VALID,1002.8,VALID,0,INVALID,163.708,VALID,0,VALID,24.2273,VALID,150,VALID,0,
2011-03-31, 01:08:04,VALID,1002.77,VALID,0,INVALID,163.723,VALID,0,VALID,24.2078,VALID,150,VALID,0,
2011-03-31, 01:09:04,VALID,1002.73,VALID,0,INVALID,163.739,VALID,0,VALID,24.2078,VALID,150,VALID,0,
2011-03-31, 01:10:04,VALID,1002.72,VALID,0,INVALID,163.693,VALID,0,VALID,24.206,VALID,150,VALID,0.053125,
2011-03-31, 01:11:04,VALID,1002.71,VALID,0,INVALID,163.723,VALID,0,VALID,24.2078,VALID,150,VALID,0.382422,
2011-03-31, 01:12:04,VALID,1002.68,VALID,0,INVALID,163.731,VALID,0,VALID,24.2078,VALID,150,VALID,0.294922,
2011-03-31, 01:13:04,VALID,1002.7,VALID,0,INVALID,163.716,VALID,0,VALID,24.1884,VALID,150,VALID,0.189844,
2011-03-31, 01:14:04,VALID,1002.69,VALID,0,INVALID,163.716,VALID,0,VALID,24.1884,VALID,150,VALID,0.0171875,
2011-03-31, 01:15:04,VALID,1002.66,VALID,0,INVALID,163.716,VALID,0,VALID,24.2078,VALID,149,VALID,0.542188,
2011-03-31, 01:16:04,VALID,1002.63,VALID,0,INVALID,163.739,VALID,0,VALID,24.1884,VALID,148,VALID,0.105469,
2011-03-31, 01:17:04,VALID,1002.6,VALID,0,INVALID,163.739,VALID,0,VALID,24.1884,VALID,148,VALID,0.078125,
2011-03-31, 01:18:04,VALID,1002.58,VALID,0,INVALID,163.716,VALID,0,VALID,24.1671,VALID,148,VALID,0.0671875,
2011-03-31, 01:19:04,VALID,1002.57,VALID,0,INVALID,163.678,VALID,0,VALID,24.2097,VALID,148,VALID,0.00273437,
2011-03-31, 01:20:04,VALID,1002.56,VALID,0,INVALID,163.693,VALID,0,VALID,24.2078,VALID,148,VALID,0,
2011-03-31, 01:21:04,VALID,1002.52,VALID,0,INVALID,163.739,VALID,0,VALID,24.2273,VALID,148,VALID,0.105859,
2011-03-31, 01:22:04,VALID,1002.5,VALID,0,INVALID,163.716,VALID,0,VALID,24.2681,VALID,148,VALID,0.369922,
2011-03-31, 01:23:04,VALID,1002.47,VALID,0,INVALID,163.723,VALID,0,VALID,24.2486,VALID,356,VALID,0.639453,
2011-03-31, 01:24:04,VALID,1002.42,VALID,0,INVALID,163.723,VALID,0,VALID,24.2078,VALID,356,VALID,0.472656,
2011-03-31, 01:25:04,VALID,1002.4,VALID,0,INVALID,163.685,VALID,0,VALID,24.2097,VALID,356,VALID,0.365625,
2011-03-31, 01:26:04,VALID,1002.34,VALID,0,INVALID,163.723,VALID,0,VALID,24.2078,VALID,356,VALID,0.501562,
2011-03-31, 01:27:04,VALID,1002.33,VALID,0,INVALID,163.701,VALID,0,VALID,24.1689,VALID,356,VALID,0.542969,
2011-03-31, 01:28:04,VALID,1002.31,VALID,0,INVALID,163.731,VALID,0,VALID,24.1902,VALID,356,VALID,0.185156,
2011-03-31, 01:29:04,VALID,1002.29,VALID,0.5,INVALID,163.723,VALID,0,VALID,24.1902,VALID,356,VALID,0.0660156,
2011-03-31, 01:30:04,VALID,1002.27,VALID,0,INVALID,163.723,VALID,0,VALID,24.1689,VALID,356,VALID,0.00703125,
2011-03-31, 01:31:04,VALID,1002.28,VALID,0,INVALID,163.716,VALID,0,VALID,24.1689,VALID,356,VALID,0.304688,
2011-03-31, 01:32:04,VALID,1002.28,VALID,0,INVALID,163.731,VALID,0,VALID,24.1707,VALID,356,VALID,0.249219,
2011-03-31, 01:33:04,VALID,1002.25,VALID,0,INVALID,163.762,VALID,0,VALID,24.13,VALID,356,VALID,0.176172,
2011-03-31, 01:34:04,VALID,1002.25,VALID,0,INVALID,163.701,VALID,0,VALID,24.1513,VALID,356,VALID,0,
2011-03-31, 01:35:04,VALID,1002.22,VALID,0,INVALID,163.731,VALID,0,VALID,24.13,VALID,356,VALID,0.270312,
2011-03-31, 01:36:04,VALID,1002.22,VALID,0,INVALID,163.708,VALID,0,VALID,24.1689,VALID,356,VALID,0.243359,
2011-03-31, 01:37:04,VALID,1002.21,VALID,0,INVALID,163.731,VALID,0,VALID,24.1689,VALID,356,VALID,0.360938,
2011-03-31, 01:38:04,VALID,1002.19,VALID,0,INVALID,163.708,VALID,0,VALID,24.1689,VALID,356,VALID,0,
2011-03-31, 01:39:04,VALID,1002.19,VALID,0,INVALID,163.716,VALID,0,VALID,24.1884,VALID,356,VALID,0,
2011-03-31, 01:40:04,VALID,1002.18,VALID,0,INVALID,163.731,VALID,0,VALID,24.2078,VALID,356,VALID,0.00859375,
2011-03-31, 01:41:04,VALID,1002.16,VALID,0,INVALID,163.723,VALID,0,VALID,24.1884,VALID,356,VALID,0,
2011-03-31, 01:42:04,VALID,1002.09,VALID,0,INVALID,163.739,VALID,0,VALID,24.1902,VALID,356,VALID,0.248047,
2011-03-31, 01:43:04,VALID,1002.09,VALID,0,INVALID,163.708,VALID,0,VALID,24.1689,VALID,356,VALID,0.196875,
2011-03-31, 01:44:04,VALID,1002.12,VALID,0,INVALID,163.739,VALID,0,VALID,24.1476,VALID,356,VALID,0.150781,
2011-03-31, 01:45:04,VALID,1002.1,VALID,0,INVALID,163.716,VALID,0,VALID,24.1494,VALID,356,VALID,0,
2011-03-31, 01:46:04,VALID,1002.08,VALID,0,INVALID,163.739,VALID,0,VALID,24.1281,VALID,356,VALID,0.053125,
2011-03-31, 01:47:04,VALID,1002.05,VALID,0,INVALID,163.723,VALID,0,VALID,24.1707,VALID,356,VALID,0.179688,
2011-03-31, 01:48:04,VALID,1002.05,VALID,0,INVALID,163.723,VALID,0,VALID,24.1105,VALID,356,VALID,0.200781,
2011-03-31, 01:49:04,VALID,1002.02,VALID,0,INVALID,163.716,VALID,0,VALID,24.1087,VALID,356,VALID,0,
2011-03-31, 01:50:04,VALID,1002.01,VALID,0,INVALID,163.739,VALID,0,VALID,24.1105,VALID,356,VALID,0.0640625,
2011-03-31, 01:51:04,VALID,1001.97,VALID,0,INVALID,163.723,VALID,0,VALID,24.1105,VALID,356,VALID,0.241016,
2011-03-31, 01:52:04,VALID,1001.96,VALID,0,INVALID,163.731,VALID,0,VALID,24.091,VALID,356,VALID,0.256641,
2011-03-31, 01:53:04,VALID,1001.94,VALID,0,INVALID,163.708,VALID,0,VALID,24.1123,VALID,356,VALID,0.246484,
2011-03-31, 01:54:04,VALID,1001.94,VALID,0,INVALID,163.693,VALID,0,VALID,24.091,VALID,356,VALID,0.248828,
2011-03-31, 01:55:04,VALID,1001.9,VALID,0.5,INVALID,163.723,VALID,0,VALID,24.0929,VALID,356,VALID,0.28125,
2011-03-31, 01:56:04,VALID,1001.86,VALID,0,INVALID,163.731,VALID,0,VALID,24.0521,VALID,356,VALID,0.178125,
2011-03-31, 01:57:04,VALID,1001.83,VALID,0,INVALID,163.746,VALID,0,VALID,24.0521,VALID,356,VALID,0.165625,
2011-03-31, 01:58:04,VALID,1001.82,VALID,0,INVALID,163.754,VALID,0,VALID,24.0521,VALID,356,VALID,0.367969,
2011-03-31, 01:59:04,VALID,1001.81,VALID,0,INVALID,163.731,VALID,0,VALID,24.0734,VALID,356,VALID,0.353906,
2011-03-31, 02:00:04,VALID,1001.79,VALID,0,INVALID,163.731,VALID,0,VALID,24.0503,VALID,356,VALID,0.336719,
2011-03-31, 02:01:04,VALID,1001.79,VALID,0,INVALID,163.723,VALID,0,VALID,24.0716,VALID,356,VALID,0.172656,
2011-03-31, 02:02:04,VALID,1001.81,VALID,0,INVALID,163.708,VALID,0,VALID,24.0716,VALID,356,VALID,0.105859,
2011-03-31, 02:03:04,VALID,1001.79,VALID,0,INVALID,163.731,VALID,0,VALID,24.1123,VALID,356,VALID,0.0046875,
2011-03-31, 02:04:04,VALID,1001.83,VALID,0,INVALID,163.746,VALID,0,VALID,24.0716,VALID,356,VALID,0,
2011-03-31, 02:05:04,VALID,1001.82,VALID,0,INVALID,163.723,VALID,0,VALID,24.0716,VALID,356,VALID,0,
2011-03-31, 02:06:04,VALID,1001.85,VALID,0,INVALID,163.716,VALID,0,VALID,24.0716,VALID,356,VALID,0,
2011-03-31, 02:07:04,VALID,1001.86,VALID,0,INVALID,163.731,VALID,0,VALID,24.0716,VALID,356,VALID,0,
2011-03-31, 02:08:04,VALID,1001.84,VALID,0,INVALID,163.731,VALID,0,VALID,24.0521,VALID,356,VALID,0.003125,
2011-03-31, 02:09:04,VALID,1001.86,VALID,0,INVALID,163.723,VALID,0,VALID,24.0503,VALID,356,VALID,0.0496094,
2011-03-31, 02:10:04,VALID,1001.85,VALID,0,INVALID,163.731,VALID,0,VALID,24.0716,VALID,356,VALID,0,
2011-03-31, 02:11:04,VALID,1001.86,VALID,0.5,INVALID,163.708,VALID,0,VALID,24.091,VALID,356,VALID,0,
2011-03-31, 02:12:04,VALID,1001.86,VALID,0,INVALID,163.739,VALID,0,VALID,24.0929,VALID,356,VALID,0,
2011-03-31, 02:13:04,VALID,1001.87,VALID,0,INVALID,163.723,VALID,0,VALID,24.0716,VALID,356,VALID,0.00585938,
2011-03-31, 02:14:04,VALID,1001.87,VALID,0,INVALID,163.723,VALID,0,VALID,24.0716,VALID,95,VALID,0.458594,
2011-03-31, 02:15:04,VALID,1001.83,VALID,0,INVALID,163.754,VALID,0,VALID,24.1318,VALID,100,VALID,0.241406,
2011-03-31, 02:16:04,VALID,1001.82,VALID,0,INVALID,163.723,VALID,0,VALID,24.1105,VALID,100,VALID,0.00742187,
2011-03-31, 02:17:04,VALID,1001.81,VALID,0,INVALID,163.723,VALID,0,VALID,24.1105,VALID,100,VALID,0.0078125,
2011-03-31, 02:18:04,VALID,1001.8,VALID,0,INVALID,163.716,VALID,0,VALID,24.13,VALID,100,VALID,0.194141,
2011-03-31, 02:19:04,VALID,1001.8,VALID,0,INVALID,163.716,VALID,0,VALID,24.1689,VALID,100,VALID,0.374219,
2011-03-31, 02:20:04,VALID,1001.81,VALID,0,INVALID,163.701,VALID,0,VALID,24.1689,VALID,100,VALID,0.296875,
2011-03-31, 02:21:04,VALID,1001.82,VALID,0,INVALID,163.708,VALID,0,VALID,24.1671,VALID,100,VALID,0.09375,
2011-03-31, 02:22:04,VALID,1001.84,VALID,0,INVALID,163.731,VALID,0,VALID,24.1884,VALID,101,VALID,0.180469,
2011-03-31, 02:23:04,VALID,1001.86,VALID,0,INVALID,163.739,VALID,0,VALID,24.2291,VALID,99,VALID,0.238281,
2011-03-31, 02:24:04,VALID,1001.86,VALID,0,INVALID,163.723,VALID,0,VALID,24.2273,VALID,111,VALID,0.245312,
2011-03-31, 02:25:04,VALID,1001.89,VALID,0,INVALID,163.708,VALID,0,VALID,24.2681,VALID,194,VALID,0.24375,
2011-03-31, 02:26:04,VALID,1001.88,VALID,0,INVALID,163.716,VALID,0,VALID,24.2468,VALID,198,VALID,0.550391,
2011-03-31, 02:27:04,VALID,1001.89,VALID,0,INVALID,163.723,VALID,0,VALID,24.2273,VALID,235,VALID,0.419922,
2011-03-31, 02:28:04,VALID,1001.88,VALID,0,INVALID,163.716,VALID,0,VALID,24.2662,VALID,205,VALID,0.489062,
2011-03-31, 02:29:04,VALID,1001.88,VALID,0,INVALID,163.708,VALID,0,VALID,24.2857,VALID,205,VALID,0.108594,
2011-03-31, 02:30:04,VALID,1001.89,VALID,0,INVALID,163.723,VALID,0,VALID,24.3052,VALID,205,VALID,0.0769531,
2011-03-31, 02:31:04,VALID,1001.88,VALID,0,INVALID,163.701,VALID,0,VALID,24.3246,VALID,206,VALID,0.278516,
2011-03-31, 02:32:04,VALID,1001.91,VALID,0,INVALID,163.701,VALID,0,VALID,24.3033,VALID,206,VALID,0.00195313,
2011-03-31, 02:33:04,VALID,1001.92,VALID,0,INVALID,163.693,VALID,0,VALID,24.3246,VALID,206,VALID,0,
2011-03-31, 02:34:04,VALID,1001.94,VALID,0,INVALID,163.708,VALID,0,VALID,24.3033,VALID,206,VALID,0.162109,
2011-03-31, 02:35:04,VALID,1001.94,VALID,0,INVALID,163.716,VALID,0,VALID,24.3246,VALID,206,VALID,0.153516,
2011-03-31, 02:36:04,VALID,1001.97,VALID,0,INVALID,163.723,VALID,0,VALID,24.3246,VALID,206,VALID,0.123828,
2011-03-31, 02:37:04,VALID,1001.97,VALID,0,INVALID,163.731,VALID,0,VALID,24.3246,VALID,206,VALID,0.0046875,
2011-03-31, 02:38:04,VALID,1001.95,VALID,0,INVALID,163.739,VALID,0,VALID,24.2857,VALID,244,VALID,0.324609,
2011-03-31, 02:39:04,VALID,1001.97,VALID,0,INVALID,163.708,VALID,0,VALID,24.2857,VALID,243,VALID,0.830859,
2011-03-31, 02:40:04,VALID,1001.98,VALID,0,INVALID,163.701,VALID,0,VALID,24.307,VALID,236,VALID,0.423047,
2011-03-31, 02:41:04,VALID,1001.96,VALID,0,INVALID,163.701,VALID,0,VALID,24.2857,VALID,236,VALID,0.223828,
2011-03-31, 02:42:04,VALID,1001.96,VALID,0,INVALID,163.716,VALID,0,VALID,24.3052,VALID,236,VALID,0,
2011-03-31, 02:43:04,VALID,1001.93,VALID,0,INVALID,163.708,VALID,0,VALID,24.2857,VALID,236,VALID,0,
2011-03-31, 02:44:04,VALID,1001.94,VALID,0,INVALID,163.731,VALID,0,VALID,24.3052,VALID,236,VALID,0,
2011-03-31, 02:45:04,VALID,1001.9,VALID,0,INVALID,163.716,VALID,0,VALID,24.3052,VALID,236,VALID,0,
2011-03-31, 02:46:04,VALID,1001.91,VALID,0,INVALID,163.723,VALID,0,VALID,24.307,VALID,236,VALID,0,
2011-03-31, 02:47:04,VALID,1001.92,VALID,0,INVALID,163.708,VALID,0,VALID,24.2857,VALID,236,VALID,0,
2011-03-31, 02:48:04,VALID,1001.95,VALID,0,INVALID,163.701,VALID,0,VALID,24.2857,VALID,236,VALID,0,
2011-03-31, 02:49:04,VALID,1001.94,VALID,0,INVALID,163.731,VALID,0,VALID,24.2875,VALID,236,VALID,0,
2011-03-31, 02:50:04,VALID,1001.95,VALID,0,INVALID,163.723,VALID,0,VALID,24.2468,VALID,236,VALID,0,
2011-03-31, 02:51:04,VALID,1001.97,VALID,0,INVALID,163.739,VALID,0,VALID,24.2662,VALID,236,VALID,0,
2011-03-31, 02:52:04,VALID,1001.97,VALID,0,INVALID,163.701,VALID,0,VALID,24.2468,VALID,212,VALID,0.242188,
2011-03-31, 02:53:04,VALID,1002.01,VALID,0,INVALID,163.731,VALID,0,VALID,24.2291,VALID,202,VALID,0.101953,
2011-03-31, 02:54:04,VALID,1002.04,VALID,0,INVALID,163.701,VALID,0,VALID,24.2468,VALID,202,VALID,0.034375,
2011-03-31, 02:55:04,VALID,1002.05,VALID,0,INVALID,163.731,VALID,0,VALID,24.2486,VALID,202,VALID,0.0480469,
2011-03-31, 02:56:04,VALID,1002.07,VALID,0,INVALID,163.762,VALID,0,VALID,24.2468,VALID,202,VALID,0.0105469,
2011-03-31, 02:57:04,VALID,1002.08,VALID,0,INVALID,163.716,VALID,0,VALID,24.2681,VALID,202,VALID,0.266406,
2011-03-31, 02:58:04,VALID,1002.06,VALID,0,INVALID,163.739,VALID,0,VALID,24.2273,VALID,202,VALID,0.0691406,
2011-03-31, 02:59:04,VALID,1002.08,VALID,0,INVALID,163.701,VALID,0,VALID,24.2662,VALID,202,VALID,0.134766,
2011-03-31, 03:00:04,VALID,1002.05,VALID,0,INVALID,163.716,VALID,0,VALID,24.2857,VALID,202,VALID,0,
2011-03-31, 03:01:04,VALID,1002.03,VALID,0,INVALID,163.762,VALID,0,VALID,24.2662,VALID,202,VALID,0,
2011-03-31, 03:02:05,VALID,1002.04,VALID,0,INVALID,163.723,VALID,0,VALID,24.2681,VALID,202,VALID,0,
2011-03-31, 03:03:05,VALID,1002.02,VALID,0,INVALID,163.693,VALID,0,VALID,24.307,VALID,202,VALID,0,
2011-03-31, 03:04:05,VALID,1002.03,VALID,0,INVALID,163.723,VALID,0,VALID,24.2662,VALID,200,VALID,0.499609,
2011-03-31, 03:05:05,VALID,1001.99,VALID,0,INVALID,163.716,VALID,0,VALID,24.2857,VALID,197,VALID,0.0320312,
2011-03-31, 03:06:05,VALID,1001.96,VALID,0,INVALID,163.708,VALID,0,VALID,24.3052,VALID,197,VALID,0.275,
2011-03-31, 03:07:05,VALID,1001.96,VALID,0,INVALID,163.716,VALID,0,VALID,24.3052,VALID,195,VALID,0.457031,
2011-03-31, 03:08:05,VALID,1001.98,VALID,0,INVALID,163.716,VALID,0,VALID,24.307,VALID,194,VALID,0.345313,
2011-03-31, 03:09:05,VALID,1002.02,VALID,0,INVALID,163.723,VALID,0,VALID,24.2468,VALID,188,VALID,0.387109,
2011-03-31, 03:10:05,VALID,1002.04,VALID,0,INVALID,163.716,VALID,0,VALID,24.2486,VALID,180,VALID,0.5125,
2011-03-31, 03:11:05,VALID,1002.07,VALID,0,INVALID,163.701,VALID,0,VALID,24.2486,VALID,178,VALID,0.348437,
2011-03-31, 03:12:05,VALID,1002.09,VALID,0,INVALID,163.731,VALID,0,VALID,24.2078,VALID,178,VALID,0.380859,
2011-03-31, 03:13:05,VALID,1002.12,VALID,0,INVALID,163.716,VALID,0,VALID,24.1884,VALID,142,VALID,0.542969,
2011-03-31, 03:14:05,VALID,1002.13,VALID,0,INVALID,163.716,VALID,0,VALID,24.2078,VALID,142,VALID,0.510938,
2011-03-31, 03:15:05,VALID,1002.15,VALID,0,INVALID,163.746,VALID,0,VALID,24.2078,VALID,117,VALID,0.350391,
2011-03-31, 03:16:05,VALID,1002.15,VALID,0,INVALID,163.701,VALID,0,VALID,24.2078,VALID,117,VALID,0.270703,
2011-03-31, 03:17:05,VALID,1002.14,VALID,0,INVALID,163.723,VALID,0,VALID,24.1884,VALID,117,VALID,0.351953,
2011-03-31, 03:18:05,VALID,1002.14,VALID,0,INVALID,163.731,VALID,0,VALID,24.2273,VALID,117,VALID,0.519922,
2011-03-31, 03:19:05,VALID,1002.1,VALID,0,INVALID,163.723,VALID,0,VALID,24.2681,VALID,117,VALID,0.66875,
2011-03-31, 03:20:05,VALID,1002.1,VALID,0,INVALID,163.716,VALID,0,VALID,24.2662,VALID,117,VALID,0.446094,
2011-03-31, 03:21:05,VALID,1002.1,VALID,0,INVALID,163.716,VALID,0,VALID,24.307,VALID,117,VALID,0.623047,
2011-03-31, 03:22:05,VALID,1002.11,VALID,0,INVALID,163.708,VALID,0,VALID,24.307,VALID,117,VALID,0.788672,
2011-03-31, 03:23:05,VALID,1002.11,VALID,0,INVALID,163.701,VALID,0,VALID,24.3052,VALID,117,VALID,0.619531,
2011-03-31, 03:24:05,VALID,1002.12,VALID,0,INVALID,163.701,VALID,0,VALID,24.3246,VALID,117,VALID,0.557031,
2011-03-31, 03:25:05,VALID,1002.15,VALID,0,INVALID,163.708,VALID,0,VALID,24.3654,VALID,117,VALID,0.403906,
2011-03-31, 03:26:05,VALID,1002.13,VALID,0,INVALID,163.708,VALID,0,VALID,24.3441,VALID,117,VALID,0.377344,
2011-03-31, 03:27:05,VALID,1002.11,VALID,0,INVALID,163.693,VALID,0,VALID,24.3441,VALID,116,VALID,0.883594,
2011-03-31, 03:28:05,VALID,1002.1,VALID,0,INVALID,163.701,VALID,0,VALID,24.3246,VALID,116,VALID,0.562109,
2011-03-31, 03:29:05,VALID,1002.11,VALID,0,INVALID,163.708,VALID,0,VALID,24.3441,VALID,116,VALID,0.413672,
2011-03-31, 03:30:05,VALID,1002.12,VALID,0,INVALID,163.693,VALID,0,VALID,24.3246,VALID,116,VALID,0.353906,
2011-03-31, 03:31:05,VALID,1002.11,VALID,0,INVALID,163.701,VALID,0,VALID,24.3441,VALID,116,VALID,0.365234,
2011-03-31, 03:32:05,VALID,1002.11,VALID,0,INVALID,163.708,VALID,0.100563,VALID,24.3228,VALID,128,VALID,0.923437,
2011-03-31, 03:33:05,VALID,1002.13,VALID,0,INVALID,163.701,VALID,0,VALID,24.3654,VALID,123,VALID,0.786328,
2011-03-31, 03:34:05,VALID,1002.14,VALID,0,INVALID,163.739,VALID,0,VALID,24.4043,VALID,113,VALID,0.4125,
2011-03-31, 03:35:05,VALID,1002.12,VALID,0,INVALID,163.701,VALID,0,VALID,24.383,VALID,113,VALID,0.248047,
2011-03-31, 03:36:05,VALID,1002.1,VALID,0,INVALID,163.67,VALID,0,VALID,24.3441,VALID,113,VALID,0.508594,
2011-03-31, 03:37:05,VALID,1002.13,VALID,0,INVALID,163.731,VALID,0,VALID,24.3636,VALID,118,VALID,0.733594,
2011-03-31, 03:38:05,VALID,1002.12,VALID,0,INVALID,163.716,VALID,0,VALID,24.4025,VALID,136,VALID,0.949219,
2011-03-31, 03:39:05,VALID,1002.12,VALID,0,INVALID,163.723,VALID,0,VALID,24.4238,VALID,140,VALID,0.522656,
2011-03-31, 03:40:05,VALID,1002.15,VALID,0,INVALID,163.723,VALID,0,VALID,24.4025,VALID,102,VALID,1.0457,
2011-03-31, 03:41:05,VALID,1002.17,VALID,0,INVALID,163.708,VALID,0,VALID,24.4414,VALID,114,VALID,0.84375,